User: anonymous   Login
Location: Unspecified
(0.0000°N, 0.0000°E)
Time: 16:55:45
(UTC+00:00)
Language:

N. Korean satellite - Orbit

View from above orbital plane
View from above orbital plane
View from above satellite
View from above satellite

Ground track
Ground track

The orbit data is extracted from the following two-line orbital elements,

1 39026U 12072A   14331.11114544  .00011722  00000-0  58674-3 0  1948
2 39026 097.3094 004.7416 0049165 220.4399 139.3176 15.16474394108047
Epoch (UTC): 27 November 2014 02:40:02
Eccentricity: 0.0049165
inclination: 97.3094°
perigee height: 482 km
apogee height: 550 km
right ascension of ascending node: 4.7416°
argument of perigee: 220.4399°
revolutions per day: 15.16474394
mean anomaly at epoch: 139.3176°
orbit number at epoch: 10804

The dashed part of the orbit path shows where the satellite is in the earth's shadow,  

DLR